Карточка аэропорта USCM

Внимание!
Информация на этой странице в стадии наполнения.
Если вы не увидели какой-то информации, или заметили неточность - пожалуйста сообщите нам!
Спасибо!
Команда RU-STAFF
Название аэропортаМагнитогорск
Название аэропорта (англ.)Magnitogorsk
Превышение436 ft. (132.9 m.)
Координаты53°23.586', 58°45.336'
Высота перехода7000ft
Эшелон переходаQNH>1013:FL80; 1013>QNH>977:FL90; 977>QNH:FL100;
Коды ответчика5501-5517
Зона ОрВДЕкатеринбург РПИ (USSV)
Данные METARUSCM 190130Z 36003MPS 9999 SCT040CB 15/14 Q1007 R36/090060 TEMPO 1000 TSRA BR VV005 RMK QFE717
Проноз погоды (TAF)USCM 182254Z 1900/1909 34003G10MPS 6000 BKN020CB TEMPO 1900/1902 0300 -TSRA FG BKN016CB TEMPO 1902/1909 VRB16MPS -TSRAGR SQ BKN016CB
NOTAMshow/hide NOTAM
AWOS   TABLE

Информация о ВПП

ВПП Длина ВПП (м.) Покрытие Курс ВПП Частота ILS
013250Цементобетон5108.7
193250Цементобетон185109.9

Диспетчерские позиции

Позывной Наименование органа УВД Частота
USCM_TWRМагнитогорск-Вышка120.8



Спутниковое изображение